[[{"header":{"parameterUnit":"m.s-1","parameterCategory":1,"la1":30.2991,"la2":30.254,"lo1":-89.0895,"lo2":-89.0444,"dy":0.0017,"dx":0.0017,"nx":28,"ny":28,"refTime":"2023-08-04T03:00:00:Z","depth":0,"parameterNumber":2,"parameterNumberName":"U-component_of_WINDS"},"data":[0,0,0,0,0,0,0,0,0,0,0,0,0,0,0,0,0,0,0,0,0,0,0,0,0,0,0,0,0,0,0,0,0,0,0,0,0,0,0,0,0,0,0,0,0,0,0,0,0,0,0,0,0,0,0,0,0,0,0.5263,0.5263,0,0.5332,0.5333,0.5333,0.5365,0.5365,0.5365,0.5365,0.5437,0.5439,0.5441,0,0,0,0,0,0,0,0,0,0,0,0,0,0.516,0.5161,0.5263,0.5263,0.5264,0.5332,0.5333,0.5334,0.5365,0.5365,0.5365,0.5365,0.5437,0.5439,0.5441,0,0,0,0,0,0,0,0,0,0,0,0,0,0.5214,0.5162,0.5262,0.5288,0.5291,0.5332,0.5333,0.5334,0.5365,0.5365,0.5365,0.5365,0.5436,0.5439,0.5442,0.5462,0,0,0.5451,0.5452,0,0,0,0,0,0,0,0,0.5211,0.5218,0.5284,0.5286,0.529,0.534,0.5323,0.5377,0.5365,0.5337,0.5365,0.5365,0.5405,0.5411,0.5424,0.5466,0.5469,0.5451,0.5453,0.5454,0.5455,0,0,0,0,0,0,0,0.5207,0.5215,0.529,0.5284,0.5288,0.5297,0.5304,0.5333,0.5371,0.534,0.5342,0.535,0.5407,0.5421,0.5426,0.547,0.5451,0.5454,0.5456,0.5457,0.5532,0.5533,0,0,0,0,0,0,0.5199,0.5212,0.5288,0.5292,0.5249,0.5299,0.5307,0.5324,0.5371,0.5378,0.535,0.5351,0.5416,0.5422,0.5428,0.5456,0.5454,0.5457,0.5459,0.5532,0.5532,0.5533,0,0,0,0,0,0,0.5197,0.5205,0.5285,0.5253,0.5263,0.5301,0.5319,0.5325,0.5339,0.5378,0.5385,0.5357,0.5416,0.5424,0.5454,0.5459,0.5458,0.5461,0.5532,0.5532,0.5532,0.551,0,0,0,0,0,0,0.5193,0.5204,0.5212,0.5253,0.5265,0.5308,0.5319,0.5327,0.5344,0.5347,0.5387,0.5394,0.5417,0.5449,0.5457,0.5463,0.5463,0.5532,0.5532,0.5532,0.5511,0.551,0.5509,0,0,0,0,0,0.519,0.5203,0.5212,0.5221,0.5275,0.5309,0.5316,0.5341,0.5345,0.5353,0.5378,0.5392,0.5457,0.5452,0.5461,0.5468,0.5531,0.5532,0.5532,0.5511,0.551,0.5509,0,0,0,0,0,0,0.5163,0.5209,0.522,0.5247,0.5273,0.5314,0.5325,0.5339,0.5366,0.5367,0.5398,0.5407,0.5434,0.5454,0.5447,0.549,0.5495,0.5498,0.5476,0.5476,0.5475,0.547,0.5466,0,0,0,0,0,0.516,0.5183,0.5222,0.5242,0.5255,0.5288,0.5303,0.5321,0.535,0.5362,0.5389,0.5417,0.5444,0.5461,0.5488,0.5514,0.5523,0.5523,0.5522,0.5521,0.5523,0.5539,0.554,0.5534,0.5534,0.5534,0,0,0.5155,0.5183,0.5195,0.5237,0.526,0.5284,0.5297,0.5321,0.5339,0.5366,0.5395,0.5416,0.5449,0.5477,0.5491,0.5495,0.5527,0.5522,0.5521,0.5523,0.554,0.554,0.5541,0.5535,0.5534,0.5534,0,0,0.5157,0.518,0.5199,0.5222,0.5256,0.5278,0.5283,0.5321,0.5336,0.5366,0.5386,0.5408,0.5453,0.5477,0.5494,0.5505,0.552,0.5513,0.5509,0.5524,0.5525,0.5525,0.553,0.5531,0.5515,0.5515,0.5515,0,0.5146,0.5181,0.5208,0.5231,0.5249,0.5274,0.5294,0.5315,0.5356,0.5369,0.5372,0.5429,0.5454,0.5488,0.549,0.5504,0.551,0.5509,0.5522,0.5523,0.5524,0.5529,0.553,0.5514,0.5514,0.5514,0.5514,0,0.5166,0.5191,0.5203,0.5242,0.5261,0.5283,0.5313,0.533,0.5346,0.5367,0.5397,0.5427,0.5461,0.547,0.5486,0.5507,0.5508,0.5516,0.5522,0.5523,0.5528,0.553,0.5512,0.5513,0.5513,0.5513,0,0,0.5154,0.5207,0.5211,0.5229,0.5269,0.5289,0.5312,0.5344,0.5358,0.5386,0.5406,0.5444,0.5452,0.5472,0.5491,0.5504,0.5511,0.5511,0.5512,0.551,0.5537,0.553,0.5532,0.5521,0.5521,0.5522,0.5534,0,0.5162,0.5204,0.5228,0.526,0.5283,0.5307,0.5327,0.5354,0.5375,0.5398,0.5421,0.5447,0.5456,0.5468,0.5482,0.5507,0.5517,0.5507,0.5541,0.5542,0.5532,0.5535,0.5528,0.5538,0.5536,0.5536,0.5537,0,0.5177,0.5204,0.5238,0.5275,0.5286,0.5304,0.5336,0.5357,0.5388,0.5403,0.5425,0.5443,0.5469,0.5472,0.5509,0.5501,0.5516,0.5531,0.5532,0.5537,0.554,0.554,0.5542,0.5544,0.554,0.554,0.5539,0,0.5165,0.521,0.5236,0.5251,0.5295,0.5307,0.5326,0.5357,0.5375,0.5403,0.5415,0.5446,0.5462,0.5486,0.5512,0.5512,0.5546,0.5551,0.5559,0.5558,0.5566,0.5565,0.5571,0.5574,0.5574,0.5574,0.5574,0,0.5171,0.5191,0.5231,0.5248,0.5271,0.5299,0.5322,0.5343,0.537,0.5392,0.5414,0.5433,0.5467,0.5491,0.5511,0.5538,0.5546,0.5558,0.5564,0.5557,0.5555,0.5568,0.5568,0.5575,0.5575,0.5575,0.5575,0,0.5162,0.5189,0.522,0.5259,0.527,0.5285,0.5319,0.5336,0.5358,0.5385,0.5393,0.5427,0.5456,0.5485,0.5524,0.5538,0.5565,0.5572,0.5554,0.5557,0.5564,0.5563,0.5578,0.5582,0.5582,0.5582,0.5582,0,0.5165,0.5181,0.5222,0.5237,0.5256,0.5281,0.5299,0.5328,0.5346,0.5383,0.5396,0.5426,0.5452,0.5498,0.5527,0.5557,0.5565,0.5568,0.557,0.5562,0.5566,0.5565,0.5567,0.5568,0.5568,0.5568,0.5567,0,0.5167,0.518,0.5205,0.5235,0.5257,0.5282,0.5308,0.532,0.5354,0.5373,0.5403,0.5423,0.5463,0.5494,0.5527,0.5547,0.5563,0.5567,0.557,0.5563,0.5553,0.5559,0.5553,0.5566,0.5566,0.5567,0.5567,0.5567,0.5164,0.518,0.5211,0.5239,0.5261,0.5285,0.5304,0.5327,0.5353,0.5387,0.5403,0.5433,0.5464,0.5511,0.5531,0.5555,0.5559,0.5564,0.5565,0.5566,0.5565,0.5548,0.5561,0.5561,0.5562,0.5562,0.5562,0,0.5168,0.5189,0.5214,0.525,0.5272,0.5285,0.5314,0.5332,0.5358,0.5386,0.5411,0.5446,0.5475,0.5506,0.5538,0.5552,0.556,0.5559,0.5559,0.5563,0.5559,0.5553,0.5552,0.5552,0.5552,0.5552,0.5552,0.5552,0.5172,0.5199,0.5216,0.5255,0.5276,0.5306,0.5322,0.5344,0.5367,0.5404,0.5429,0.5449,0.5478,0.5512,0.5539,0.5548,0.5559,0.5556,0.5566,0.5563,0.5563,0.5564,0.5558,0.5558,0.5558,0.5568,0.5568,0.5568]},{"header":{"parameterUnit":"m.s-1","parameterCategory":1,"la1":30.2991,"la2":30.254,"lo1":-89.0895,"lo2":-89.0444,"dy":0.0017,"dx":0.0017,"nx":28,"ny":28,"refTime":"2023-08-04T03:00:00:Z","depth":0,"parameterNumber":3,"parameterNumberName":"V-component_of_WINDS"},"data":[0,0,0,0,0,0,0,0,0,0,0,0,0,0,0,0,0,0,0,0,0,0,0,0,0,0,0,0,0,0,0,0,0,0,0,0,0,0,0,0,0,0,0,0,0,0,0,0,0,0,0,0,0,0,0,0,0,0,2.3984,2.3984,0,2.4011,2.4011,2.4012,2.3999,2.3998,2.3997,2.3997,2.4024,2.4025,2.4026,0,0,0,0,0,0,0,0,0,0,0,0,0,2.3917,2.3918,2.3984,2.3984,2.3984,2.4011,2.4011,2.4012,2.3999,2.3998,2.3997,2.3996,2.4023,2.4025,2.4026,0,0,0,0,0,0,0,0,0,0,0,0,0,2.3945,2.3918,2.3984,2.3981,2.3981,2.4011,2.4011,2.4012,2.3999,2.3998,2.3997,2.3996,2.4023,2.4025,2.4027,2.406,0,0,2.4033,2.4034,0,0,0,0,0,0,0,0,2.3943,2.3947,2.3981,2.3981,2.3982,2.4,2.3998,2.4028,2.3999,2.3992,2.3997,2.3996,2.4017,2.4019,2.4027,2.4061,2.4062,2.4033,2.4034,2.4035,2.4036,0,0,0,0,0,0,0,2.3941,2.3946,2.3994,2.3982,2.3982,2.3977,2.398,2.4003,2.401,2.3993,2.3992,2.3995,2.4017,2.4025,2.4027,2.4063,2.4033,2.4035,2.4036,2.4037,2.4122,2.4123,0,0,0,0,0,0,2.394,2.3945,2.3994,2.3995,2.396,2.398,2.3983,2.3995,2.401,2.4011,2.3996,2.3995,2.4022,2.4025,2.4028,2.4065,2.4035,2.4037,2.4038,2.4121,2.4122,2.4123,0,0,0,0,0,0,2.3939,2.3944,2.3993,2.397,2.3976,2.3982,2.3996,2.3997,2.4005,2.4012,2.4013,2.4003,2.4021,2.4025,2.4051,2.4066,2.4038,2.404,2.412,2.4121,2.4123,2.4141,0,0,0,0,0,0,2.3937,2.3944,2.3958,2.397,2.3977,2.4017,2.3997,2.3998,2.4008,2.4006,2.4019,2.402,2.402,2.4048,2.4053,2.4068,2.4041,2.4118,2.412,2.4122,2.4139,2.4143,2.4146,0,0,0,0,0,2.3934,2.3963,2.3959,2.3965,2.3994,2.4017,2.4021,2.4021,2.401,2.4022,2.4027,2.402,2.4064,2.4051,2.4057,2.4072,2.4117,2.412,2.4122,2.4137,2.4142,2.4146,0,0,0,0,0,0,2.3953,2.3964,2.396,2.3993,2.4004,2.4015,2.4032,2.4027,2.4041,2.4039,2.4037,2.404,2.4067,2.4072,2.4058,2.4103,2.4088,2.4092,2.4098,2.4103,2.4106,2.4104,2.4043,0,0,0,0,0,2.396,2.3979,2.3988,2.4016,2.4022,2.4026,2.4036,2.4035,2.4046,2.405,2.4057,2.4068,2.4083,2.4094,2.4109,2.414,2.4141,2.4153,2.4157,2.416,2.4162,2.4176,2.418,2.4131,2.4131,2.4131,0,0,2.3977,2.3985,2.3997,2.402,2.4029,2.4046,2.403,2.405,2.4062,2.4054,2.4078,2.4083,2.4094,2.4122,2.4135,2.4127,2.4176,2.4163,2.4165,2.4166,2.4178,2.4183,2.4187,2.4132,2.4132,2.4132,0,0,2.4015,2.4025,2.4048,2.4056,2.4068,2.407,2.4075,2.4087,2.4089,2.4114,2.4106,2.412,2.4149,2.4156,2.4163,2.4201,2.4194,2.4206,2.4224,2.4237,2.4241,2.4244,2.4255,2.4259,2.4208,2.4209,2.4209,0,2.4034,2.4061,2.406,2.408,2.4088,2.408,2.4102,2.411,2.4127,2.4132,2.4124,2.4157,2.4164,2.4192,2.4201,2.4208,2.4212,2.4204,2.424,2.4244,2.4247,2.4257,2.4261,2.421,2.421,2.4209,2.4209,0,2.4081,2.41,2.4116,2.4131,2.4142,2.4163,2.4164,2.4175,2.4172,2.4174,2.4197,2.4205,2.422,2.4227,2.4225,2.4254,2.4248,2.4241,2.4226,2.4253,2.4262,2.4266,2.4211,2.4211,2.4211,2.421,0,0,2.4132,2.4145,2.4151,2.4156,2.4168,2.4181,2.42,2.4215,2.4223,2.4234,2.4248,2.4271,2.4262,2.4271,2.4269,2.4281,2.4306,2.4271,2.4271,2.4275,2.4334,2.4339,2.4343,2.4302,2.4303,2.4303,2.4332,0,2.4169,2.4202,2.4201,2.4232,2.4247,2.4238,2.4254,2.4262,2.4264,2.4276,2.4278,2.4293,2.4283,2.4287,2.4298,2.4301,2.4318,2.4299,2.4313,2.4314,2.4309,2.4349,2.4354,2.4381,2.4336,2.4337,2.4338,0,2.4217,2.4228,2.426,2.4266,2.4272,2.4287,2.4298,2.431,2.4318,2.4319,2.4327,2.4322,2.4339,2.4325,2.4347,2.4334,2.434,2.4342,2.4343,2.4343,2.4326,2.4347,2.439,2.4393,2.4344,2.4343,2.4343,0,2.4247,2.427,2.4291,2.4296,2.4305,2.4315,2.4319,2.4326,2.4333,2.4343,2.4347,2.4359,2.4365,2.4374,2.4372,2.4362,2.4394,2.438,2.4393,2.4393,2.4399,2.4398,2.4441,2.4406,2.4406,2.4406,2.4406,0,2.4287,2.4306,2.4304,2.4317,2.4337,2.4335,2.4354,2.4357,2.4363,2.4375,2.4369,2.438,2.4378,2.4388,2.4387,2.4404,2.4408,2.4407,2.4406,2.4406,2.4406,2.4409,2.4406,2.4407,2.4407,2.4406,2.4406,0,2.4323,2.4324,2.4345,2.4351,2.4353,2.4367,2.4371,2.4382,2.4383,2.4398,2.4401,2.4402,2.4414,2.4414,2.4428,2.4427,2.4447,2.4445,2.4444,2.4442,2.4454,2.4452,2.4499,2.4504,2.4468,2.4468,2.4469,0,2.4348,2.4362,2.4368,2.4375,2.4379,2.4392,2.4399,2.4396,2.4404,2.4412,2.4422,2.4433,2.4442,2.4461,2.4462,2.4472,2.4469,2.4484,2.447,2.4469,2.4466,2.4464,2.4465,2.4487,2.4487,2.4488,2.4488,0,2.4389,2.4388,2.4399,2.4408,2.4417,2.4425,2.4432,2.4438,2.4436,2.4444,2.4456,2.4463,2.4476,2.4486,2.4495,2.4498,2.4492,2.4492,2.4495,2.4495,2.4493,2.4491,2.4449,2.4491,2.4491,2.449,2.449,2.449,2.4419,2.4429,2.4435,2.4446,2.445,2.4457,2.4466,2.4467,2.4477,2.4487,2.4485,2.4498,2.4503,2.4514,2.4518,2.4527,2.4521,2.4526,2.4527,2.4528,2.4528,2.4493,2.4529,2.4528,2.4528,2.4528,2.4528,0,2.4458,2.446,2.4471,2.4479,2.4488,2.4481,2.4488,2.4495,2.4506,2.4511,2.4519,2.4531,2.4541,2.4542,2.4551,2.4558,2.4555,2.456,2.4558,2.4559,2.4534,2.4529,2.4562,2.4562,2.4562,2.4562,2.4562,2.4562,2.4479,2.4496,2.4495,2.4513,2.4515,2.4527,2.4531,2.4535,2.4539,2.4553,2.456,2.4561,2.4564,2.4573,2.4581,2.4581,2.4583,2.4589,2.4588,2.4564,2.4561,2.4557,2.4553,2.459,2.459,2.4611,2.4612,2.4612]}]]